TimeCST,TemperatureF,Dew PointF,Humidity,Sea Level PressureIn,VisibilityMPH,Wind Direction,Wind SpeedMPH,Gust SpeedMPH,PrecipitationIn,Events,Conditions,WindDirDegrees,DateUTC
12:15 AM,48.2,44.6,87,30.14,10.0,North,6.9,-,N/A,,Overcast,360,2013-11-05 06:15:00
12:35 AM,50.0,42.8,76,30.15,10.0,North,5.8,-,N/A,,Overcast,350,2013-11-05 06:35:00
12:55 AM,50.0,42.8,76,30.15,10.0,North,6.9,-,N/A,,Overcast,350,2013-11-05 06:55:00
1:15 AM,50.0,42.8,76,30.15,10.0,North,5.8,11.5,N/A,,Overcast,10,2013-11-05 07:15:00
1:35 AM,48.2,42.8,82,30.15,10.0,North,5.8,-,N/A,,Overcast,10,2013-11-05 07:35:00
1:55 AM,48.2,42.8,82,30.15,10.0,NNE,9.2,-,N/A,,Overcast,20,2013-11-05 07:55:00
2:15 AM,48.2,42.8,82,30.15,10.0,NNE,9.2,-,N/A,,Overcast,20,2013-11-05 08:15:00
2:35 AM,48.2,42.8,82,30.15,10.0,NE,8.1,-,N/A,,Overcast,40,2013-11-05 08:35:00
2:55 AM,48.2,42.8,82,30.15,10.0,NE,6.9,-,N/A,,Overcast,50,2013-11-05 08:55:00
3:15 AM,48.2,42.8,82,30.15,10.0,ENE,6.9,-,N/A,,Overcast,70,2013-11-05 09:15:00
3:35 AM,48.2,42.8,82,30.15,10.0,ENE,5.8,-,N/A,,Overcast,60,2013-11-05 09:35:00
3:55 AM,48.2,42.8,82,30.15,10.0,NE,4.6,-,N/A,,Overcast,50,2013-11-05 09:55:00
4:15 AM,48.2,42.8,82,30.16,10.0,ENE,3.5,-,N/A,,Overcast,60,2013-11-05 10:15:00
4:35 AM,48.2,42.8,82,30.16,10.0,ENE,5.8,-,N/A,,Overcast,60,2013-11-05 10:35:00
4:55 AM,48.2,42.8,82,30.16,10.0,NE,6.9,-,N/A,,Overcast,40,2013-11-05 10:55:00
5:15 AM,48.2,42.8,82,30.15,10.0,NE,8.1,-,N/A,,Overcast,40,2013-11-05 11:15:00
5:35 AM,48.2,41.0,76,30.15,10.0,ENE,9.2,-,N/A,,Overcast,60,2013-11-05 11:35:00
5:55 AM,48.2,41.0,76,30.15,10.0,NE,9.2,-,N/A,,Overcast,50,2013-11-05 11:55:00
6:15 AM,48.2,41.0,76,30.15,8.0,East,10.4,-,N/A,Rain,Light Rain,80,2013-11-05 12:15:00
6:35 AM,46.4,41.0,81,30.15,10.0,East,8.1,-,N/A,,Overcast,80,2013-11-05 12:35:00
6:55 AM,46.4,41.0,81,30.15,10.0,East,9.2,-,N/A,,Overcast,80,2013-11-05 12:55:00
7:15 AM,46.4,41.0,81,30.15,10.0,ENE,6.9,-,N/A,,Overcast,60,2013-11-05 13:15:00
7:35 AM,46.4,41.0,81,30.14,10.0,ENE,9.2,-,N/A,,Overcast,60,2013-11-05 13:35:00
7:55 AM,46.4,42.8,87,30.14,10.0,East,8.1,-,N/A,,Overcast,80,2013-11-05 13:55:00
8:15 AM,46.4,42.8,87,30.14,9.0,East,8.1,-,N/A,,Overcast,80,2013-11-05 14:15:00
8:35 AM,46.4,42.8,87,30.14,7.0,ENE,6.9,-,N/A,,Overcast,70,2013-11-05 14:35:00
8:55 AM,46.4,44.6,93,30.13,2.0,East,6.9,-,N/A,Rain,Light Rain,80,2013-11-05 14:55:00
9:15 AM,46.4,44.6,93,30.13,0.8,East,10.4,-,N/A,Rain,Light Rain,90,2013-11-05 15:15:00
9:35 AM,46.4,46.4,100,30.12,0.8,East,10.4,-,N/A,,Light Drizzle,80,2013-11-05 15:35:00
9:55 AM,48.2,46.4,93,30.11,0.8,East,8.1,-,0.01,,Overcast,90,2013-11-05 15:55:00
10:15 AM,48.2,46.4,93,30.10,1.0,East,9.2,-,N/A,,Overcast,90,2013-11-05 16:15:00
10:35 AM,48.2,46.4,93,30.09,1.0,East,6.9,-,N/A,,Overcast,100,2013-11-05 16:35:00
10:55 AM,50.0,48.2,94,30.07,0.5,ESE,8.1,-,N/A,,Overcast,110,2013-11-05 16:55:00
11:15 AM,50.0,48.2,94,30.06,0.5,East,6.9,-,N/A,,Overcast,100,2013-11-05 17:15:00
11:35 AM,50.0,50.0,100,30.05,0.5,ESE,6.9,-,N/A,Fog,Fog,110,2013-11-05 17:35:00
11:55 AM,51.8,50.0,94,30.03,0.8,ESE,8.1,-,N/A,,Overcast,110,2013-11-05 17:55:00
12:15 PM,51.8,51.8,100,30.01,2.0,SE,6.9,-,N/A,Rain,Light Rain,130,2013-11-05 18:15:00
12:35 PM,53.6,51.8,94,29.99,5.0,SE,10.4,-,N/A,,Overcast,140,2013-11-05 18:35:00
12:55 PM,53.6,51.8,94,29.98,5.0,SE,10.4,17.3,N/A,,Overcast,140,2013-11-05 18:55:00
1:15 PM,53.6,51.8,94,29.97,1.0,SSE,11.5,17.3,N/A,Rain,Light Rain,150,2013-11-05 19:15:00
1:35 PM,53.6,51.8,94,29.95,2.0,SE,11.5,-,N/A,Rain,Light Rain,140,2013-11-05 19:35:00
1:55 PM,53.6,51.8,94,29.93,3.0,SE,12.7,-,0.09,Rain,Light Rain,140,2013-11-05 19:55:00
2:15 PM,53.6,51.8,94,29.92,2.5,SSE,12.7,-,N/A,Rain,Light Rain,150,2013-11-05 20:15:00
2:35 PM,53.6,53.6,100,29.91,1.2,SE,13.8,-,N/A,Rain,Light Rain,140,2013-11-05 20:35:00
2:55 PM,53.6,53.6,100,29.90,5.0,SSE,11.5,17.3,0.09,,Light Drizzle,150,2013-11-05 20:55:00
3:15 PM,55.4,53.6,94,29.89,4.0,SSE,11.5,17.3,N/A,,Overcast,150,2013-11-05 21:15:00
3:35 PM,55.4,53.6,94,29.88,3.0,SSE,11.5,17.3,N/A,,Light Drizzle,150,2013-11-05 21:35:00
3:55 PM,55.4,53.6,94,29.88,1.5,SSE,12.7,18.4,0.02,Rain,Light Rain,160,2013-11-05 21:55:00
4:15 PM,55.4,53.6,94,29.87,2.0,South,15.0,21.9,N/A,Rain,Light Rain,170,2013-11-05 22:15:00
4:35 PM,55.4,53.6,94,29.86,9.0,South,13.8,19.6,N/A,,Overcast,170,2013-11-05 22:35:00
4:55 PM,57.2,55.4,94,29.86,9.0,South,13.8,20.7,0.03,,Overcast,170,2013-11-05 22:55:00
5:15 PM,57.2,55.4,94,29.85,5.0,South,15.0,-,N/A,Rain,Light Rain,180,2013-11-05 23:15:00
5:35 PM,57.2,55.4,94,29.85,10.0,South,18.4,25.3,N/A,Rain,Light Rain,180,2013-11-05 23:35:00
5:55 PM,57.2,55.4,94,29.84,6.0,South,16.1,21.9,0.02,Rain,Light Rain,180,2013-11-05 23:55:00
6:15 PM,57.2,55.4,94,29.84,6.0,South,16.1,26.5,N/A,,Overcast,180,2013-11-06 00:15:00
6:35 PM,57.2,55.4,94,29.84,10.0,South,18.4,25.3,N/A,,Overcast,180,2013-11-06 00:35:00
6:55 PM,57.2,55.4,94,29.84,7.0,South,16.1,23.0,0.02,Rain,Light Rain,180,2013-11-06 00:55:00
7:15 PM,57.2,55.4,94,29.83,4.0,South,16.1,-,N/A,Rain,Light Rain,180,2013-11-06 01:15:00
7:35 PM,57.2,55.4,94,29.83,9.0,South,17.3,-,N/A,,Overcast,180,2013-11-06 01:35:00
7:55 PM,57.2,55.4,94,29.83,6.0,South,18.4,-,0.01,Rain,Light Rain,180,2013-11-06 01:55:00
8:15 PM,57.2,55.4,94,29.82,-9999.0,South,16.1,-,N/A,,Overcast,180,2013-11-06 02:15:00
8:35 PM,57.2,55.4,94,29.82,10.0,South,13.8,20.7,N/A,,Overcast,190,2013-11-06 02:35:00
8:55 PM,57.2,55.4,94,29.81,6.0,South,15.0,23.0,0.02,Rain,Light Rain,180,2013-11-06 02:55:00
9:15 PM,57.2,55.4,94,29.81,10.0,South,15.0,20.7,N/A,,Overcast,190,2013-11-06 03:15:00
9:35 PM,57.2,55.4,94,29.81,10.0,South,13.8,-,N/A,,Overcast,190,2013-11-06 03:35:00
9:55 PM,59.0,55.4,88,29.81,10.0,South,16.1,23.0,N/A,,Overcast,190,2013-11-06 03:55:00
10:15 PM,59.0,55.4,88,29.81,10.0,South,15.0,23.0,N/A,,Overcast,190,2013-11-06 04:15:00
10:35 PM,59.0,55.4,88,29.80,10.0,South,15.0,20.7,N/A,,Overcast,190,2013-11-06 04:35:00
10:55 PM,59.0,55.4,88,29.79,10.0,South,12.7,21.9,N/A,,Overcast,190,2013-11-06 04:55:00
11:15 PM,59.0,55.4,88,29.79,8.0,SSW,12.7,20.7,N/A,Rain,Light Rain,200,2013-11-06 05:15:00
11:35 PM,59.0,57.2,94,29.78,5.0,SSW,13.8,20.7,N/A,,Overcast,200,2013-11-06 05:35:00
11:55 PM,55.4,51.8,88,29.81,3.0,WNW,13.8,20.7,0.04,,Light Drizzle,300,2013-11-06 05:55:00